When you browse on this site, cookies collect data to enhance your experience and personalize the content and advertising you see.
Visit our Privacy Policy to learn more. By continuing to use the site, you agree to this use of cookies and data.
  • In Hungary
  • List of Countries
  • For 7 days
  • Water Temperature
  • Weather Map
  • News
  • Weather Widgets
  • user-avatar
    Login

    Hourly Weather Jolarpettai

    Today, 13 November, Wednesday

    Time Temperature Precipitation Wind Pressure Humidity
    00:00 +22°C° 0 mm 1 mps 726 mmHg 94%
    01:00 +22°C° 0 mm 1 mps 725 mmHg 94%
    02:00 +22°C° 0 mm 1 mps 725 mmHg 95%
    03:00 +22°C° 0 mm 1 mps 725 mmHg 96%
    04:00 +22°C° 0 mm 1 mps 725 mmHg 96%
    05:00 +21°C° 0 mm 1 mps 726 mmHg 96%
    06:00 +23°C° 0 mm 1 mps 726 mmHg 92%
    07:00 +24°C° 0 mm 1 mps 727 mmHg 88%
    08:00 +25°C° 0 mm 2 mps 727 mmHg 84%
    09:00 +27°C° 0 mm 2 mps 727 mmHg 77%
    10:00 +28°C° 0 mm 3 mps 727 mmHg 71%
    11:00 +29°C° 0 mm 3 mps 727 mmHg 65%
    12:00 +29°C° 0 mm 3 mps 726 mmHg 65%
    13:00 +30°C° 0 mm 3 mps 725 mmHg 64%
    14:00 +30°C° 0 mm 3 mps 725 mmHg 64%
    15:00 +29°C° 0 mm 3 mps 725 mmHg 70%
    16:00 +27°C° 0 mm 3 mps 725 mmHg 75%
    17:00 +26°C° 0 mm 2 mps 725 mmHg 81%
    18:00 +25°C° 0 mm 2 mps 725 mmHg 84%
    19:00 +24°C° 0 mm 2 mps 726 mmHg 87%
    20:00 +23°C° 0 mm 2 mps 727 mmHg 91%
    21:00 +23°C° 0 mm 2 mps 727 mmHg 92%
    22:00 +21°C° 0 mm 2 mps 726 mmHg 94%
    23:00 +22°C° 0 mm 1 mps 726 mmHg 95%

    Tomorrow, 14 November, Thursday

    Time Temperature Precipitation Wind Pressure Humidity
    00:00 +22°C° 0 mm 1 mps 726 mmHg 96%
    01:00 +22°C° 0 mm 1 mps 725 mmHg 97%
    02:00 +21°C° 0 mm 1 mps 725 mmHg 97%
    03:00 +21°C° 0 mm 1 mps 725 mmHg 96%
    04:00 +22°C° 0 mm 1 mps 725 mmHg 96%
    05:00 +22°C° 0 mm 1 mps 725 mmHg 95%
    06:00 +23°C° 0 mm 1 mps 726 mmHg 92%
    07:00 +24°C° 0 mm 2 mps 726 mmHg 89%
    08:00 +25°C° 0 mm 2 mps 727 mmHg 86%
    09:00 +26°C° 0 mm 2 mps 727 mmHg 82%
    10:00 +28°C° 0 mm 2 mps 727 mmHg 77%
    11:00 +29°C° 0 mm 2 mps 726 mmHg 73%
    12:00 +29°C° 1.3 mm 2 mps 726 mmHg 75%
    13:00 +29°C° 1.3 mm 2 mps 725 mmHg 76%
    14:00 +29°C° 1.3 mm 3 mps 724 mmHg 78%
    15:00 +28°C° 1.4 mm 2 mps 724 mmHg 82%
    16:00 +27°C° 1.4 mm 2 mps 724 mmHg 86%
    17:00 +26°C° 1.4 mm 2 mps 724 mmHg 90%
    18:00 +25°C° 0.1 mm 2 mps 725 mmHg 91%
    19:00 +25°C° 0.1 mm 2 mps 726 mmHg 92%
    20:00 +24°C° 0.1 mm 2 mps 726 mmHg 94%
    21:00 +24°C° 0 mm 2 mps 726 mmHg 94%
    22:00 +24°C° 0 mm 1 mps 726 mmHg 95%
    23:00 +23°C° 0 mm 1 mps 726 mmHg 96%

    Day after tomorrow, 15 November, Friday

    Time Temperature Precipitation Wind Pressure Humidity
    00:00 +23°C° 0 mm 1 mps 725 mmHg 96%
    01:00 +23°C° 0 mm 1 mps 725 mmHg 97%
    02:00 +23°C° 0 mm 1 mps 724 mmHg 97%
    03:00 +23°C° 0 mm 1 mps 724 mmHg 97%
    04:00 +23°C° 0 mm 1 mps 724 mmHg 97%
    05:00 +23°C° 0 mm 1 mps 724 mmHg 97%
    06:00 +24°C° 0 mm 1 mps 725 mmHg 94%
    07:00 +25°C° 0 mm 1 mps 726 mmHg 90%
    08:00 +26°C° 0 mm 2 mps 727 mmHg 87%
    09:00 +27°C° 0.1 mm 2 mps 727 mmHg 82%
    10:00 +28°C° 0.1 mm 2 mps 726 mmHg 77%
    11:00 +29°C° 0.1 mm 2 mps 726 mmHg 72%
    12:00 +30°C° 0.7 mm 2 mps 725 mmHg 72%
    13:00 +30°C° 0.7 mm 2 mps 725 mmHg 72%
    14:00 +30°C° 0.7 mm 2 mps 724 mmHg 71%
    15:00 +29°C° 0.3 mm 2 mps 724 mmHg 74%
    16:00 +28°C° 0.3 mm 2 mps 724 mmHg 81%
    17:00 +26°C° 0.3 mm 2 mps 724 mmHg 88%
    18:00 +26°C° 0.5 mm 2 mps 725 mmHg 90%
    19:00 +25°C° 0.5 mm 2 mps 725 mmHg 92%
    20:00 +24°C° 0.5 mm 2 mps 726 mmHg 94%
    21:00 +24°C° 0.1 mm 2 mps 726 mmHg 95%
    22:00 +24°C° 0.1 mm 1 mps 726 mmHg 95%
    23:00 +24°C° 0.1 mm 1 mps 726 mmHg 95%

    16 November, Saturday

    Time Temperature Precipitation Wind Pressure Humidity
    00:00 +24°C° 0 mm 1 mps 725 mmHg 96%
    01:00 +23°C° 0 mm 1 mps 725 mmHg 96%
    02:00 +23°C° 0 mm 1 mps 724 mmHg 97%
    03:00 +23°C° 0 mm 1 mps 725 mmHg 97%
    04:00 +23°C° 0 mm 1 mps 725 mmHg 97%
    05:00 +22°C° 0 mm 1 mps 725 mmHg 97%
    06:00 +23°C° 0 mm 1 mps 725 mmHg 93%
    07:00 +24°C° 0 mm 1 mps 726 mmHg 89%
    08:00 +25°C° 0 mm 1 mps 727 mmHg 85%
    09:00 +27°C° 0 mm 1 mps 727 mmHg 77%
    10:00 +28°C° 0 mm 2 mps 726 mmHg 68%
    11:00 +30°C° 0 mm 2 mps 726 mmHg 59%
    12:00 +30°C° 0 mm 2 mps 726 mmHg 60%
    13:00 +30°C° 0 mm 2 mps 725 mmHg 60%
    14:00 +31°C° 0 mm 2 mps 724 mmHg 60%
    15:00 +29°C° 0 mm 2 mps 724 mmHg 68%
    16:00 +28°C° 0 mm 2 mps 724 mmHg 75%
    17:00 +27°C° 0 mm 2 mps 724 mmHg 83%
    18:00 +26°C° 0 mm 2 mps 725 mmHg 86%
    19:00 +25°C° 0 mm 2 mps 726 mmHg 89%
    20:00 +24°C° 0 mm 2 mps 726 mmHg 92%
    21:00 +24°C° 0 mm 1 mps 726 mmHg 93%
    22:00 +24°C° 0 mm 1 mps 726 mmHg 94%
    23:00 +23°C° 0 mm 1 mps 726 mmHg 95%

    17 November, Sunday

    Time Temperature Precipitation Wind Pressure Humidity
    00:00 +23°C° 0 mm 1 mps 726 mmHg 95%
    01:00 +23°C° 0 mm 1 mps 725 mmHg 95%
    02:00 +22°C° 0 mm 1 mps 725 mmHg 96%
    03:00 +22°C° 0 mm 1 mps 725 mmHg 95%
    04:00 +22°C° 0 mm 1 mps 725 mmHg 94%
    05:00 +22°C° 0 mm 1 mps 725 mmHg 94%
    06:00 +23°C° 0 mm 1 mps 726 mmHg 87%
    07:00 +25°C° 0 mm 1 mps 726 mmHg 81%
    08:00 +26°C° 0 mm 1 mps 727 mmHg 74%
    09:00 +27°C° 0 mm 2 mps 727 mmHg 70%
    10:00 +29°C° 0 mm 2 mps 727 mmHg 65%
    11:00 +30°C° 0 mm 3 mps 726 mmHg 61%
    12:00 +30°C° 0 mm 3 mps 726 mmHg 62%
    13:00 +30°C° 0 mm 3 mps 725 mmHg 62%
    14:00 +31°C° 0 mm 3 mps 724 mmHg 63%
    15:00 +29°C° 0 mm 3 mps 725 mmHg 69%
    16:00 +28°C° 0 mm 3 mps 725 mmHg 75%
    17:00 +27°C° 0 mm 2 mps 725 mmHg 81%
    18:00 +26°C° 0 mm 2 mps 725 mmHg 84%
    19:00 +25°C° 0 mm 2 mps 726 mmHg 87%
    20:00 +24°C° 0 mm 1 mps 726 mmHg 90%
    21:00 +24°C° 0 mm 1 mps 726 mmHg 90%
    22:00 +24°C° 0 mm 1 mps 726 mmHg 91%
    23:00 +23°C° 0 mm 1 mps 726 mmHg 92%

    18 November, Monday

    Time Temperature Precipitation Wind Pressure Humidity
    00:00 +23°C° 0 mm 1 mps 725 mmHg 92%
    01:00 +23°C° 0 mm 1 mps 725 mmHg 93%
    02:00 +23°C° 0 mm 1 mps 724 mmHg 93%
    03:00 +22°C° 0 mm 1 mps 725 mmHg 92%
    04:00 +22°C° 0 mm 1 mps 725 mmHg 92%
    05:00 +22°C° 0 mm 1 mps 725 mmHg 91%
    06:00 +24°C° 0 mm 1 mps 725 mmHg 86%
    07:00 +25°C° 0 mm 1 mps 726 mmHg 81%
    08:00 +27°C° 0 mm 1 mps 727 mmHg 76%
    09:00 +28°C° 0 mm 2 mps 726 mmHg 74%
    10:00 +29°C° 0 mm 2 mps 726 mmHg 72%
    11:00 +30°C° 0 mm 3 mps 726 mmHg 70%
    12:00 +30°C° 0.8 mm 3 mps 725 mmHg 71%
    13:00 +30°C° 0.8 mm 3 mps 725 mmHg 72%
    14:00 +30°C° 0.8 mm 3 mps 724 mmHg 74%
    15:00 +29°C° 0.9 mm 2 mps 724 mmHg 78%
    16:00 +28°C° 0.9 mm 2 mps 724 mmHg 83%
    17:00 +27°C° 0.9 mm 2 mps 724 mmHg 88%
    18:00 +26°C° 0.3 mm 2 mps 725 mmHg 89%
    19:00 +26°C° 0.3 mm 1 mps 725 mmHg 91%
    20:00 +25°C° 0.3 mm 1 mps 726 mmHg 93%
    21:00 +25°C° 0 mm 1 mps 726 mmHg 94%
    22:00 +24°C° 0 mm 1 mps 725 mmHg 94%
    23:00 +24°C° 0 mm 1 mps 725 mmHg 95%
    Show more